When you browse on this site, cookies collect data to enhance your experience and personalize the content and advertising you see.
Visit our Privacy Policy to learn more. By continuing to use the site, you agree to this use of cookies and data.
  • In Latvia
  • List of Countries
  • For 7 days
  • Water Temperature
  • Satellite Maps
  • Weather Map
  • Weather Widgets
  • user-avatar
    Login

    Hourly Weather Natitingou

    Today, 21 November, Wednesday

    Time Temperature Precipitation Wind Pressure Humidity
    00:00 +28°C° 0 mm 1 mps 718 mmHg 24%
    01:00 +27°C° 0 mm 1 mps 717 mmHg 25%
    02:00 +27°C° 0 mm 1 mps 717 mmHg 25%
    03:00 +27°C° 0 mm 1 mps 717 mmHg 26%
    04:00 +26°C° 0 mm 1 mps 717 mmHg 27%
    05:00 +26°C° 0 mm 1 mps 717 mmHg 28%
    06:00 +25°C° 0 mm 1 mps 717 mmHg 30%
    07:00 +28°C° 0 mm 1 mps 718 mmHg 27%
    08:00 +31°C° 0 mm 1 mps 719 mmHg 24%
    09:00 +34°C° 0 mm 1 mps 719 mmHg 21%
    10:00 +35°C° 0 mm 1 mps 719 mmHg 18%
    11:00 +38°C° 0 mm 2 mps 718 mmHg 15%
    12:00 +40°C° 0 mm 2 mps 718 mmHg 12%
    13:00 +40°C° 0 mm 2 mps 717 mmHg 11%
    14:00 +40°C° 0 mm 2 mps 717 mmHg 11%
    15:00 +40°C° 0 mm 2 mps 716 mmHg 10%
    16:00 +38°C° 0 mm 2 mps 716 mmHg 12%
    17:00 +35°C° 0 mm 1 mps 716 mmHg 14%
    18:00 +32°C° 0 mm 1 mps 716 mmHg 15%
    19:00 +31°C° 0 mm 1 mps 716 mmHg 16%
    20:00 +30°C° 0 mm 1 mps 717 mmHg 16%
    21:00 +30°C° 0 mm 1 mps 717 mmHg 17%
    22:00 +29°C° 0 mm 1 mps 717 mmHg 17%
    23:00 +28°C° 0 mm 1 mps 717 mmHg 17%

    Tomorrow, 22 November, Thursday

    Time Temperature Precipitation Wind Pressure Humidity
    00:00 +28°C° 0 mm 1 mps 717 mmHg 17%
    01:00 +27°C° 0 mm 1 mps 717 mmHg 17%
    02:00 +26°C° 0 mm 1 mps 716 mmHg 18%
    03:00 +25°C° 0 mm 1 mps 716 mmHg 18%
    04:00 +25°C° 0 mm 1 mps 716 mmHg 19%
    05:00 +24°C° 0 mm 1 mps 716 mmHg 20%
    06:00 +24°C° 0 mm 1 mps 717 mmHg 21%
    07:00 +27°C° 0 mm 1 mps 717 mmHg 21%
    08:00 +30°C° 0 mm 1 mps 718 mmHg 21%
    09:00 +32°C° 0 mm 1 mps 719 mmHg 21%
    10:00 +34°C° 0 mm 1 mps 718 mmHg 18%
    11:00 +37°C° 0 mm 2 mps 718 mmHg 14%
    12:00 +39°C° 0 mm 2 mps 717 mmHg 11%
    13:00 +39°C° 0 mm 2 mps 717 mmHg 11%
    14:00 +39°C° 0 mm 2 mps 716 mmHg 10%
    15:00 +40°C° 0 mm 2 mps 715 mmHg 10%
    16:00 +36°C° 0 mm 1 mps 715 mmHg 12%
    17:00 +34°C° 0 mm 1 mps 715 mmHg 13%
    18:00 +32°C° 0 mm 1 mps 715 mmHg 15%
    19:00 +31°C° 0 mm 1 mps 716 mmHg 15%
    20:00 +30°C° 0 mm 1 mps 716 mmHg 15%
    21:00 +29°C° 0 mm 1 mps 717 mmHg 15%
    22:00 +29°C° 0 mm 1 mps 717 mmHg 15%
    23:00 +28°C° 0 mm 1 mps 716 mmHg 15%

    Day after tomorrow, 23 November, Friday

    Time Temperature Precipitation Wind Pressure Humidity
    00:00 +27°C° 0 mm 1 mps 716 mmHg 15%
    01:00 +27°C° 0 mm 1 mps 716 mmHg 17%
    02:00 +26°C° 0 mm 1 mps 716 mmHg 18%
    03:00 +26°C° 0 mm 1 mps 715 mmHg 20%
    04:00 +25°C° 0 mm 1 mps 716 mmHg 24%
    05:00 +25°C° 0 mm 1 mps 716 mmHg 28%
    06:00 +24°C° 0 mm 1 mps 716 mmHg 33%
    07:00 +27°C° 0 mm 1 mps 717 mmHg 35%
    08:00 +29°C° 0 mm 2 mps 718 mmHg 37%
    09:00 +32°C° 0 mm 2 mps 719 mmHg 39%
    10:00 +35°C° 0 mm 2 mps 718 mmHg 33%
    11:00 +36°C° 0 mm 1 mps 718 mmHg 28%
    12:00 +40°C° 0 mm 1 mps 717 mmHg 22%
    13:00 +40°C° 0 mm 1 mps 717 mmHg 21%
    14:00 +40°C° 0 mm 1 mps 716 mmHg 19%
    15:00 +40°C° 0 mm 1 mps 715 mmHg 18%
    16:00 +37°C° 0 mm 1 mps 715 mmHg 21%
    17:00 +35°C° 0 mm 1 mps 715 mmHg 23%
    18:00 +33°C° 0 mm 1 mps 715 mmHg 26%
    19:00 +32°C° 0 mm 1 mps 715 mmHg 27%
    20:00 +31°C° 0 mm 1 mps 716 mmHg 28%
    21:00 +31°C° 0 mm 1 mps 717 mmHg 29%
    22:00 +30°C° 0 mm 1 mps 716 mmHg 30%
    23:00 +29°C° 0 mm 1 mps 716 mmHg 31%

    24 November, Saturday

    Time Temperature Precipitation Wind Pressure Humidity
    00:00 +29°C° 0 mm 1 mps 716 mmHg 32%
    01:00 +28°C° 0 mm 1 mps 716 mmHg 34%
    02:00 +28°C° 0 mm 1 mps 716 mmHg 35%
    03:00 +27°C° 0 mm 1 mps 715 mmHg 36%
    04:00 +27°C° 0 mm 1 mps 716 mmHg 42%
    05:00 +26°C° 0 mm 1 mps 716 mmHg 47%
    06:00 +26°C° 0 mm 1 mps 717 mmHg 53%
    07:00 +28°C° 0 mm 2 mps 717 mmHg 51%
    08:00 +30°C° 0 mm 2 mps 718 mmHg 50%
    09:00 +32°C° 0 mm 2 mps 719 mmHg 49%
    10:00 +36°C° 0 mm 2 mps 718 mmHg 41%
    11:00 +39°C° 0 mm 1 mps 718 mmHg 33%
    12:00 +39°C° 0 mm 0 mps 718 mmHg 25%
    13:00 +38°C° 0 mm 0 mps 717 mmHg 23%
    14:00 +38°C° 0 mm 0 mps 716 mmHg 22%
    15:00 +38°C° 0 mm 0 mps 715 mmHg 20%
    16:00 +36°C° 0 mm 0 mps 715 mmHg 22%
    17:00 +34°C° 0 mm 0 mps 715 mmHg 24%
    18:00 +32°C° 0 mm 0 mps 716 mmHg 27%
    19:00 +31°C° 0 mm 0 mps 716 mmHg 28%
    20:00 +30°C° 0 mm 0 mps 716 mmHg 29%
    21:00 +29°C° 0 mm 0 mps 717 mmHg 30%
    22:00 +29°C° 0 mm 0 mps 717 mmHg 31%
    23:00 +28°C° 0 mm 0 mps 716 mmHg 31%

    25 November, Sunday

    Time Temperature Precipitation Wind Pressure Humidity
    00:00 +30°C° 0 mm 1 mps 716 mmHg 31%
    01:00 +29°C° 0 mm 1 mps 716 mmHg 31%
    02:00 +29°C° 0 mm 1 mps 716 mmHg 30%
    03:00 +28°C° 0 mm 1 mps 715 mmHg 30%
    04:00 +27°C° 0 mm 1 mps 716 mmHg 31%
    05:00 +27°C° 0 mm 1 mps 716 mmHg 32%
    06:00 +26°C° 0 mm 1 mps 717 mmHg 33%
    07:00 +29°C° 0 mm 1 mps 717 mmHg 31%
    08:00 +32°C° 0 mm 1 mps 718 mmHg 29%
    09:00 +34°C° 0 mm 1 mps 719 mmHg 27%
    10:00 +36°C° 0 mm 1 mps 718 mmHg 22%
    11:00 +39°C° 0 mm 1 mps 718 mmHg 17%
    12:00 +41°C° 0 mm 2 mps 717 mmHg 12%
    13:00 +41°C° 0 mm 2 mps 716 mmHg 11%
    14:00 +41°C° 0 mm 2 mps 716 mmHg 10%
    15:00 +40°C° 0 mm 2 mps 715 mmHg 9%
    16:00 +38°C° 0 mm 2 mps 715 mmHg 10%
    17:00 +36°C° 0 mm 2 mps 715 mmHg 11%
    18:00 +33°C° 0 mm 1 mps 715 mmHg 12%
    19:00 +32°C° 0 mm 1 mps 715 mmHg 12%
    20:00 +31°C° 0 mm 2 mps 715 mmHg 12%
    21:00 +30°C° 0 mm 2 mps 716 mmHg 12%
    22:00 +29°C° 0 mm 2 mps 716 mmHg 12%
    23:00 +29°C° 0 mm 2 mps 715 mmHg 12%

    26 November, Monday

    Time Temperature Precipitation Wind Pressure Humidity
    00:00 +28°C° 0 mm 2 mps 715 mmHg 12%
    01:00 +27°C° 0 mm 2 mps 715 mmHg 13%
    02:00 +27°C° 0 mm 1 mps 715 mmHg 13%
    03:00 +26°C° 0 mm 1 mps 715 mmHg 14%
    04:00 +25°C° 0 mm 1 mps 715 mmHg 19%
    05:00 +25°C° 0 mm 1 mps 715 mmHg 24%
    06:00 +24°C° 0 mm 1 mps 716 mmHg 30%
    07:00 +27°C° 0 mm 1 mps 716 mmHg 34%
    08:00 +29°C° 0 mm 2 mps 717 mmHg 39%
    09:00 +31°C° 0 mm 2 mps 717 mmHg 44%
    10:00 +35°C° 0 mm 2 mps 717 mmHg 36%
    11:00 +37°C° 0 mm 1 mps 717 mmHg 28%
    12:00 +40°C° 0 mm 1 mps 716 mmHg 21%
    13:00 +40°C° 0 mm 1 mps 715 mmHg 20%
    14:00 +40°C° 0 mm 1 mps 715 mmHg 18%
    15:00 +40°C° 0 mm 1 mps 714 mmHg 17%
    16:00 +37°C° 0 mm 1 mps 714 mmHg 19%
    17:00 +35°C° 0 mm 1 mps 714 mmHg 21%
    18:00 +33°C° 0 mm 1 mps 714 mmHg 23%
    19:00 +32°C° 0 mm 1 mps 715 mmHg 23%
    20:00 +31°C° 0 mm 1 mps 715 mmHg 24%
    21:00 +30°C° 0 mm 1 mps 716 mmHg 25%
    22:00 +30°C° 0 mm 1 mps 715 mmHg 26%
    23:00 +29°C° 0 mm 1 mps 715 mmHg 27%
    Show more